Time,TemperatureF,DewpointF,PressureIn,WindDirection,WindDirectionDegrees,WindSpeedMPH,WindSpeedGustMPH,Humidity,HourlyPrecipIn,Conditions,Clouds,dailyrainin,SoftwareType,DateUTC
2013-02-11 00:09:00,23.8,18.2,30.25,North,5,3.0,3.0,79,0.00,,,0.00,Wunderground v.1.15,2013-02-11 05:09:00,
2013-02-11 00:19:00,24.1,18.8,30.25,North,5,3.0,3.0,80,0.00,,,0.00,Wunderground v.1.15,2013-02-11 05:19:00,
2013-02-11 00:29:00,24.6,19.3,30.25,North,5,2.0,2.0,80,0.00,,,0.00,Wunderground v.1.15,2013-02-11 05:29:00,
2013-02-11 00:39:00,25.0,20.0,30.25,North,5,1.0,1.0,81,0.00,,,0.00,Wunderground v.1.15,2013-02-11 05:39:00,
2013-02-11 00:49:00,25.3,20.0,30.23,North,5,1.0,1.0,80,0.00,,,0.00,Wunderground v.1.15,2013-02-11 05:49:00,
2013-02-11 00:59:00,25.5,20.2,30.23,North,5,1.0,3.0,80,0.00,,,0.00,Wunderground v.1.15,2013-02-11 05:59:00,
2013-02-11 01:09:00,25.6,20.3,30.23,North,5,2.0,3.0,80,0.00,,,0.00,Wunderground v.1.15,2013-02-11 06:09:00,
2013-02-11 01:19:00,25.9,20.9,30.22,North,5,2.0,2.0,81,0.00,,,0.00,Wunderground v.1.15,2013-02-11 06:19:00,
2013-02-11 01:29:00,26.1,21.1,30.22,North,5,2.0,3.0,81,0.00,,,0.00,Wunderground v.1.15,2013-02-11 06:29:00,
2013-02-11 01:39:00,26.3,21.3,30.22,North,5,2.0,3.0,81,0.00,,,0.00,Wunderground v.1.15,2013-02-11 06:39:00,
2013-02-11 01:49:00,26.5,21.7,30.21,North,5,2.0,2.0,82,0.00,,,0.00,Wunderground v.1.15,2013-02-11 06:49:00,
2013-02-11 01:59:00,26.6,22.1,30.21,North,5,2.0,3.0,83,0.00,,,0.00,Wunderground v.1.15,2013-02-11 06:59:00,
2013-02-11 02:09:00,26.7,22.5,30.20,North,9,2.0,3.0,84,0.00,,,0.00,Wunderground v.1.15,2013-02-11 07:09:00,
2013-02-11 02:19:00,27.0,23.1,30.20,North,5,3.0,3.0,85,0.00,,,0.00,Wunderground v.1.15,2013-02-11 07:19:00,
2013-02-11 02:29:00,27.2,23.3,30.20,North,5,2.0,2.0,85,0.00,,,0.00,Wunderground v.1.15,2013-02-11 07:29:00,
2013-02-11 02:39:00,27.4,23.8,30.19,North,9,3.0,3.0,86,0.00,,,0.00,Wunderground v.1.15,2013-02-11 07:39:00,
2013-02-11 02:49:00,27.5,23.9,30.18,North,5,2.0,4.0,86,0.00,,,0.00,Wunderground v.1.15,2013-02-11 07:49:00,
2013-02-11 02:59:00,27.7,24.3,30.18,North,5,2.0,2.0,87,0.00,,,0.00,Wunderground v.1.15,2013-02-11 07:59:00,
2013-02-11 03:09:00,27.9,24.5,30.17,North,5,2.0,3.0,87,0.00,,,0.00,Wunderground v.1.15,2013-02-11 08:09:00,
2013-02-11 03:19:00,28.1,24.7,30.16,North,5,3.0,3.0,87,0.00,,,0.00,Wunderground v.1.15,2013-02-11 08:19:00,
2013-02-11 03:29:00,28.5,25.4,30.16,North,5,3.0,4.0,88,0.00,,,0.00,Wunderground v.1.15,2013-02-11 08:29:00,
2013-02-11 03:39:00,28.8,25.7,30.15,North,9,3.0,4.0,88,0.00,,,0.00,Wunderground v.1.15,2013-02-11 08:39:00,
2013-02-11 03:49:00,29.5,26.7,30.13,North,5,4.0,4.0,89,0.00,,,0.00,Wunderground v.1.15,2013-02-11 08:49:00,
2013-02-11 03:58:00,30.1,27.3,30.13,North,5,4.0,4.0,89,0.00,,,0.00,Wunderground v.1.15,2013-02-11 08:58:00,
2013-02-11 04:08:00,30.5,27.6,30.12,North,5,4.0,4.0,89,0.00,,,0.00,Wunderground v.1.15,2013-02-11 09:08:00,
2013-02-11 04:18:00,30.7,27.8,30.13,North,5,3.0,3.0,89,0.00,,,0.00,Wunderground v.1.15,2013-02-11 09:18:00,
2013-02-11 04:28:00,30.4,27.3,30.13,North,5,3.0,3.0,88,0.00,,,0.00,Wunderground v.1.15,2013-02-11 09:28:00,
2013-02-11 04:38:00,30.5,27.6,30.13,North,5,2.0,2.0,89,0.00,,,0.00,Wunderground v.1.15,2013-02-11 09:38:00,
2013-02-11 04:48:00,30.6,27.7,30.12,North,5,2.0,2.0,89,0.00,,,0.00,Wunderground v.1.15,2013-02-11 09:48:00,
2013-02-11 04:59:00,30.8,27.9,30.12,North,9,1.0,1.0,89,0.00,,,0.00,Wunderground v.1.15,2013-02-11 09:59:00,
2013-02-11 05:09:00,30.9,28.0,30.11,North,9,1.0,1.0,89,0.00,,,0.00,Wunderground v.1.15,2013-02-11 10:09:00,
2013-02-11 05:19:00,31.0,28.1,30.12,North,5,0.0,0.0,89,0.00,,,0.00,Wunderground v.1.15,2013-02-11 10:19:00,
2013-02-11 05:29:00,31.2,28.6,30.12,North,5,0.0,0.0,90,0.00,,,0.00,Wunderground v.1.15,2013-02-11 10:29:00,
2013-02-11 05:39:00,31.8,29.5,30.10,North,5,0.0,0.0,91,0.00,,,0.00,Wunderground v.1.15,2013-02-11 10:39:00,
2013-02-11 05:49:00,32.2,29.9,30.10,North,5,0.0,0.0,91,0.00,,,0.00,Wunderground v.1.15,2013-02-11 10:49:00,
2013-02-11 05:59:00,32.6,30.3,30.10,North,9,0.0,0.0,91,0.00,,,0.00,Wunderground v.1.15,2013-02-11 10:59:00,
2013-02-11 06:09:00,33.0,30.7,30.08,North,9,0.0,0.0,91,0.00,,,0.00,Wunderground v.1.15,2013-02-11 11:09:00,
2013-02-11 06:19:00,33.4,31.1,30.08,North,5,0.0,0.0,91,0.00,,,0.00,Wunderground v.1.15,2013-02-11 11:19:00,
2013-02-11 06:29:00,33.6,31.3,30.08,North,5,0.0,1.0,91,0.00,,,0.00,Wunderground v.1.15,2013-02-11 11:29:00,
2013-02-11 06:39:00,33.9,31.6,30.08,North,5,1.0,1.0,91,0.00,,,0.00,Wunderground v.1.15,2013-02-11 11:39:00,
2013-02-11 06:49:00,34.0,31.6,30.07,North,9,1.0,1.0,91,0.00,,,0.00,Wunderground v.1.15,2013-02-11 11:49:00,
2013-02-11 06:59:00,34.3,31.9,30.07,North,5,1.0,1.0,91,0.00,,,0.00,Wunderground v.1.15,2013-02-11 11:59:00,
2013-02-11 07:09:00,34.7,32.3,30.06,North,5,2.0,2.0,91,0.00,,,0.00,Wunderground v.1.15,2013-02-11 12:09:00,
2013-02-11 07:19:00,34.8,32.4,30.05,North,5,2.0,4.0,91,0.00,,,0.00,Wunderground v.1.15,2013-02-11 12:19:00,
2013-02-11 07:29:00,34.8,32.7,30.05,North,5,3.0,4.0,92,0.00,,,0.00,Wunderground v.1.15,2013-02-11 12:29:00,
2013-02-11 07:39:00,35.0,32.9,30.05,North,5,4.0,4.0,92,0.00,,,0.00,Wunderground v.1.15,2013-02-11 12:39:00,
2013-02-11 07:49:00,35.5,33.7,30.04,North,5,5.0,5.0,93,0.00,,,0.00,Wunderground v.1.15,2013-02-11 12:49:00,
2013-02-11 07:59:00,35.5,33.7,30.04,North,5,4.0,4.0,93,0.00,,,0.00,Wunderground v.1.15,2013-02-11 12:59:00,
2013-02-11 08:09:00,35.7,33.9,30.01,North,9,5.0,5.0,93,0.00,,,0.00,Wunderground v.1.15,2013-02-11 13:09:00,
2013-02-11 08:19:00,36.0,34.2,30.00,North,9,5.0,5.0,93,0.00,,,0.00,Wunderground v.1.15,2013-02-11 13:19:00,
2013-02-11 08:29:00,36.5,34.9,30.00,North,9,4.0,4.0,94,0.00,,,0.00,Wunderground v.1.15,2013-02-11 13:29:00,
2013-02-11 08:40:00,37.0,35.4,30.00,North,9,4.0,4.0,94,0.00,,,0.00,Wunderground v.1.15,2013-02-11 13:40:00,
2013-02-11 08:50:00,37.3,35.7,29.98,North,9,4.0,4.0,94,0.00,,,0.00,Wunderground v.1.15,2013-02-11 13:50:00,
2013-02-11 09:00:00,37.6,36.0,29.95,North,9,5.0,5.0,94,0.00,,,0.00,Wunderground v.1.15,2013-02-11 14:00:00,
2013-02-11 09:10:00,37.9,36.3,29.95,North,9,5.0,5.0,94,0.00,,,0.00,Wunderground v.1.15,2013-02-11 14:10:00,
2013-02-11 09:20:00,37.9,36.3,29.95,North,9,3.0,6.0,94,0.00,,,0.00,Wunderground v.1.15,2013-02-11 14:20:00,
2013-02-11 09:30:00,38.5,37.2,29.93,North,9,4.0,5.0,95,0.00,,,0.00,Wunderground v.1.15,2013-02-11 14:30:00,
2013-02-11 09:40:00,39.2,37.9,29.93,North,9,6.0,7.0,95,0.00,,,0.00,Wunderground v.1.15,2013-02-11 14:40:00,
2013-02-11 09:50:00,40.6,39.3,29.91,North,9,8.0,8.0,95,0.00,,,0.00,Wunderground v.1.15,2013-02-11 14:50:00,
2013-02-11 10:00:00,41.6,40.3,29.90,North,9,10.0,10.0,95,0.13,,,0.02,Wunderground v.1.15,2013-02-11 15:00:00,
2013-02-11 10:10:00,42.4,41.1,29.90,North,9,11.0,11.0,95,0.04,,,0.02,Wunderground v.1.15,2013-02-11 15:10:00,
2013-02-11 10:20:00,42.6,41.3,29.88,North,9,12.0,13.0,95,0.16,,,0.04,Wunderground v.1.15,2013-02-11 15:20:00,
2013-02-11 10:30:00,42.8,41.5,29.86,North,9,12.0,12.0,95,0.43,,,0.05,Wunderground v.1.15,2013-02-11 15:30:00,
2013-02-11 10:40:00,43.1,42.0,29.86,North,9,11.0,12.0,96,0.43,,,0.07,Wunderground v.1.15,2013-02-11 15:40:00,
2013-02-11 10:50:00,43.3,42.2,29.85,North,9,12.0,12.0,96,0.05,,,0.07,Wunderground v.1.15,2013-02-11 15:50:00,
2013-02-11 11:00:00,44.0,42.9,29.83,North,9,13.0,15.0,96,0.00,,,0.08,Wunderground v.1.15,2013-02-11 16:00:00,
2013-02-11 11:10:00,44.1,43.0,29.83,North,9,13.0,17.0,96,0.44,,,0.16,Wunderground v.1.15,2013-02-11 16:10:00,
2013-02-11 11:20:00,44.5,43.4,29.83,North,9,14.0,21.0,96,0.50,,,0.25,Wunderground v.1.15,2013-02-11 16:20:00,
2013-02-11 11:30:00,44.4,43.3,29.83,North,9,14.0,19.0,96,0.98,,,0.37,Wunderground v.1.15,2013-02-11 16:30:00,
2013-02-11 11:40:00,44.9,43.8,29.82,North,9,16.0,22.0,96,1.10,,,0.50,Wunderground v.1.15,2013-02-11 16:40:00,
2013-02-11 11:50:00,45.1,44.0,29.83,North,9,17.0,17.0,96,0.71,,,0.61,Wunderground v.1.15,2013-02-11 16:50:00,
2013-02-11 12:00:00,45.0,43.9,29.83,North,9,14.0,14.0,96,0.49,,,0.69,Wunderground v.1.15,2013-02-11 17:00:00,
2013-02-11 12:10:00,44.8,43.7,29.81,North,9,14.0,14.0,96,0.49,,,0.75,Wunderground v.1.15,2013-02-11 17:10:00,
2013-02-11 12:19:00,44.8,43.7,29.81,North,9,13.0,13.0,96,0.44,,,0.80,Wunderground v.1.15,2013-02-11 17:19:00,
2013-02-11 12:29:00,44.6,43.5,29.81,North,9,13.0,13.0,96,0.23,,,0.86,Wunderground v.1.15,2013-02-11 17:29:00,
2013-02-11 12:39:00,44.3,43.2,29.80,North,9,13.0,15.0,96,0.36,,,0.91,Wunderground v.1.15,2013-02-11 17:39:00,
2013-02-11 12:49:00,44.2,43.1,29.77,North,5,13.0,13.0,96,0.21,,,0.95,Wunderground v.1.15,2013-02-11 17:49:00,
2013-02-11 12:59:00,44.0,42.9,29.77,North,9,13.0,13.0,96,0.15,,,0.97,Wunderground v.1.15,2013-02-11 17:59:00,
2013-02-11 13:09:00,43.7,42.6,29.77,North,5,12.0,12.0,96,0.10,,,0.99,Wunderground v.1.15,2013-02-11 18:09:00,
2013-02-11 13:19:00,43.5,42.4,29.75,North,9,11.0,11.0,96,0.25,,,1.03,Wunderground v.1.15,2013-02-11 18:19:00,
2013-02-11 13:29:00,43.2,42.1,29.75,North,5,11.0,11.0,96,0.15,,,1.05,Wunderground v.1.15,2013-02-11 18:29:00,
2013-02-11 13:39:00,43.2,42.1,29.73,North,5,12.0,12.0,96,0.09,,,1.06,Wunderground v.1.15,2013-02-11 18:39:00,
2013-02-11 13:49:00,43.2,42.1,29.72,North,9,10.0,10.0,96,0.08,,,1.08,Wunderground v.1.15,2013-02-11 18:49:00,
2013-02-11 13:59:00,43.3,42.2,29.72,North,9,10.0,11.0,96,0.07,,,1.09,Wunderground v.1.15,2013-02-11 18:59:00,
2013-02-11 14:09:00,43.5,42.4,29.71,North,9,10.0,10.0,96,0.10,,,1.11,Wunderground v.1.15,2013-02-11 19:09:00,
2013-02-11 14:19:00,43.6,42.5,29.70,North,5,11.0,11.0,96,0.06,,,1.12,Wunderground v.1.15,2013-02-11 19:19:00,
2013-02-11 14:29:00,43.7,42.6,29.70,North,9,12.0,18.0,96,0.08,,,1.13,Wunderground v.1.15,2013-02-11 19:29:00,
2013-02-11 14:39:00,43.8,42.7,29.70,North,9,13.0,13.0,96,0.06,,,1.14,Wunderground v.1.15,2013-02-11 19:39:00,
2013-02-11 14:49:00,43.8,42.7,29.69,North,5,12.0,15.0,96,0.07,,,1.15,Wunderground v.1.15,2013-02-11 19:49:00,
2013-02-11 14:59:00,43.8,42.7,29.69,North,5,11.0,11.0,96,0.04,,,1.16,Wunderground v.1.15,2013-02-11 19:59:00,
2013-02-11 15:09:00,43.7,42.6,29.68,North,9,11.0,11.0,96,0.05,,,1.17,Wunderground v.1.15,2013-02-11 20:09:00,
2013-02-11 15:19:00,43.7,42.6,29.69,North,5,11.0,16.0,96,0.05,,,1.17,Wunderground v.1.15,2013-02-11 20:19:00,
2013-02-11 15:29:00,43.5,42.4,29.69,North,5,10.0,10.0,96,0.00,,,1.17,Wunderground v.1.15,2013-02-11 20:29:00,
2013-02-11 15:39:00,43.2,42.1,29.67,North,5,9.0,9.0,96,0.00,,,1.18,Wunderground v.1.15,2013-02-11 20:39:00,
2013-02-11 15:49:00,43.3,42.2,29.66,North,5,10.0,10.0,96,0.04,,,1.19,Wunderground v.1.15,2013-02-11 20:49:00,
2013-02-11 15:59:00,43.2,42.1,29.66,North,5,11.0,11.0,96,0.04,,,1.19,Wunderground v.1.15,2013-02-11 20:59:00,
2013-02-11 16:09:00,43.0,41.9,29.65,North,5,10.0,11.0,96,0.00,,,1.19,Wunderground v.1.15,2013-02-11 21:09:00,
2013-02-11 16:18:00,42.8,41.7,29.64,North,5,11.0,11.0,96,0.00,,,1.20,Wunderground v.1.15,2013-02-11 21:18:00,
2013-02-11 16:28:00,42.8,41.7,29.64,North,5,10.0,10.0,96,0.00,,,1.20,Wunderground v.1.15,2013-02-11 21:28:00,
2013-02-11 16:38:00,42.5,41.4,29.63,North,5,8.0,11.0,96,0.00,,,1.21,Wunderground v.1.15,2013-02-11 21:38:00,
2013-02-11 16:49:00,42.4,41.3,29.62,North,5,8.0,8.0,96,0.00,,,1.21,Wunderground v.1.15,2013-02-11 21:49:00,
2013-02-11 16:59:00,42.4,41.3,29.62,North,5,7.0,7.0,96,0.00,,,1.21,Wunderground v.1.15,2013-02-11 21:59:00,
2013-02-11 17:09:00,42.3,41.2,29.63,North,5,8.0,8.0,96,0.00,,,1.22,Wunderground v.1.15,2013-02-11 22:09:00,
2013-02-11 17:18:00,41.9,40.8,29.61,North,5,7.0,8.0,96,0.00,,,1.22,Wunderground v.1.15,2013-02-11 22:18:00,
2013-02-11 17:28:00,41.6,40.5,29.61,North,5,7.0,9.0,96,0.04,,,1.23,Wunderground v.1.15,2013-02-11 22:28:00,
2013-02-11 17:38:00,41.5,40.4,29.61,North,5,8.0,8.0,96,0.04,,,1.23,Wunderground v.1.15,2013-02-11 22:38:00,
2013-02-11 17:48:00,41.5,40.4,29.61,North,5,7.0,7.0,96,0.00,,,1.23,Wunderground v.1.15,2013-02-11 22:48:00,
2013-02-11 17:58:00,41.4,40.3,29.61,North,5,7.0,7.0,96,0.00,,,1.23,Wunderground v.1.15,2013-02-11 22:58:00,
2013-02-11 18:08:00,41.3,40.2,29.60,North,5,6.0,7.0,96,0.00,,,1.23,Wunderground v.1.15,2013-02-11 23:08:00,
2013-02-11 18:18:00,41.4,40.3,29.61,North,5,7.0,10.0,96,0.00,,,1.24,Wunderground v.1.15,2013-02-11 23:18:00,
2013-02-11 18:28:00,41.4,40.3,29.61,North,5,8.0,8.0,96,0.00,,,1.24,Wunderground v.1.15,2013-02-11 23:28:00,
2013-02-11 18:38:00,41.3,40.2,29.61,North,5,5.0,5.0,96,0.00,,,1.24,Wunderground v.1.15,2013-02-11 23:38:00,
2013-02-11 18:48:00,41.0,39.9,29.60,North,5,2.0,2.0,96,0.00,,,1.25,Wunderground v.1.15,2013-02-11 23:48:00,
2013-02-11 18:58:00,41.0,39.9,29.60,North,5,1.0,4.0,96,0.00,,,1.25,Wunderground v.1.15,2013-02-11 23:58:00,
2013-02-11 19:08:00,41.1,40.3,29.59,North,5,1.0,3.0,97,0.00,,,1.25,Wunderground v.1.15,2013-02-12 00:08:00,
2013-02-11 19:18:00,41.2,40.4,29.58,North,5,3.0,3.0,97,0.00,,,1.25,Wunderground v.1.15,2013-02-12 00:18:00,
2013-02-11 19:28:00,41.3,40.2,29.58,North,5,2.0,2.0,96,0.00,,,1.25,Wunderground v.1.15,2013-02-12 00:28:00,
2013-02-11 19:38:00,41.2,40.4,29.57,North,5,2.0,2.0,97,0.00,,,1.25,Wunderground v.1.15,2013-02-12 00:38:00,
2013-02-11 19:48:00,40.9,39.8,29.57,North,5,2.0,3.0,96,0.00,,,1.26,Wunderground v.1.15,2013-02-12 00:48:00,
2013-02-11 19:58:00,40.4,39.4,29.57,North,5,3.0,4.0,96,0.00,,,1.26,Wunderground v.1.15,2013-02-12 00:58:00,
2013-02-11 20:08:00,40.0,39.0,29.56,North,5,3.0,3.0,96,0.00,,,1.26,Wunderground v.1.15,2013-02-12 01:08:00,
2013-02-11 20:18:00,40.0,39.0,29.56,North,5,3.0,3.0,96,0.00,,,1.26,Wunderground v.1.15,2013-02-12 01:18:00,
2013-02-11 20:28:00,40.3,39.3,29.56,North,5,4.0,5.0,96,0.00,,,1.26,Wunderground v.1.15,2013-02-12 01:28:00,
2013-02-11 20:38:00,40.5,39.7,29.55,North,5,5.0,5.0,97,0.00,,,1.26,Wunderground v.1.15,2013-02-12 01:38:00,
2013-02-11 20:48:00,40.6,39.8,29.55,North,5,4.0,5.0,97,0.00,,,1.27,Wunderground v.1.15,2013-02-12 01:48:00,
2013-02-11 20:58:00,40.5,39.7,29.55,North,5,6.0,6.0,97,0.00,,,1.27,Wunderground v.1.15,2013-02-12 01:58:00,
2013-02-11 21:08:00,40.4,39.6,29.55,North,5,5.0,5.0,97,0.00,,,1.27,Wunderground v.1.15,2013-02-12 02:08:00,
2013-02-11 21:17:00,40.4,39.4,29.55,North,5,3.0,3.0,96,0.00,,,1.27,Wunderground v.1.15,2013-02-12 02:17:00,
2013-02-11 21:28:00,40.8,40.0,29.55,North,5,3.0,3.0,97,0.00,,,1.27,Wunderground v.1.15,2013-02-12 02:28:00,
2013-02-11 21:38:00,41.1,40.3,29.56,North,9,3.0,3.0,97,0.00,,,1.27,Wunderground v.1.15,2013-02-12 02:38:00,
2013-02-11 21:47:00,41.2,40.4,29.56,North,9,3.0,4.0,97,0.00,,,1.27,Wunderground v.1.15,2013-02-12 02:47:00,
2013-02-11 21:57:00,41.4,40.6,29.56,North,5,3.0,3.0,97,0.00,,,1.27,Wunderground v.1.15,2013-02-12 02:57:00,
2013-02-11 22:07:00,40.4,39.6,29.56,North,5,3.0,3.0,97,0.00,,,1.27,Wunderground v.1.15,2013-02-12 03:07:00,
2013-02-11 22:17:00,39.5,38.5,29.57,North,9,6.0,6.0,96,0.00,,,1.27,Wunderground v.1.15,2013-02-12 03:17:00,
2013-02-11 22:27:00,39.0,38.0,29.57,North,5,7.0,10.0,96,0.00,,,1.27,Wunderground v.1.15,2013-02-12 03:27:00,
2013-02-11 22:37:00,38.6,37.6,29.58,North,5,6.0,9.0,96,0.00,,,1.27,Wunderground v.1.15,2013-02-12 03:37:00,
2013-02-11 22:47:00,38.8,38.0,29.58,North,5,6.0,9.0,97,0.00,,,1.28,Wunderground v.1.15,2013-02-12 03:47:00,
2013-02-11 22:57:00,39.9,39.1,29.58,North,5,3.0,3.0,97,0.00,,,1.28,Wunderground v.1.15,2013-02-12 03:57:00,
2013-02-11 23:07:00,40.2,39.4,29.56,North,5,2.0,2.0,97,0.00,,,1.28,Wunderground v.1.15,2013-02-12 04:07:00,
2013-02-11 23:17:00,40.4,39.6,29.56,North,5,2.0,3.0,97,0.00,,,1.28,Wunderground v.1.15,2013-02-12 04:17:00,
2013-02-11 23:27:00,40.7,39.9,29.56,North,5,4.0,4.0,97,0.00,,,1.28,Wunderground v.1.15,2013-02-12 04:27:00,
2013-02-11 23:37:00,41.1,40.3,29.56,North,5,4.0,4.0,97,0.00,,,1.28,Wunderground v.1.15,2013-02-12 04:37:00,
2013-02-11 23:47:00,41.6,40.8,29.56,North,5,5.0,5.0,97,0.00,,,1.28,Wunderground v.1.15,2013-02-12 04:47:00,
2013-02-11 23:57:00,41.8,41.0,29.56,North,5,6.0,7.0,97,0.00,,,1.28,Wunderground v.1.15,2013-02-12 04:57:00,